This demonstration page uses our WeatherBlox Daily Observations layout. Learn more.

Left ArrowRight Arrow

39.51506, -84.39828

Hourly Observations for February 11, 2017

Temp ( °F °C ) Dew Point ( °F °C ) Humidity (%) Winds ( mph kmh ) Pressure ( in mb ) Visibility ( mi km ) Precip ( " mm )
12:53 am 00:53 Clear 49 9.4 28 -2.2 44 44 SW 12 19 29.87 1012 10 16 0.00 0.00
1:53 am 01:53 Clear 50 10 28 -2.2 43 43 SW 14 22 29.87 1012 10 16 0.00 0.00
2:53 am 02:53 Clear 50 10 29 -1.7 44 44 SW 14 22 29.87 1012 10 16 0.00 0.00
3:53 am 03:53 Clear 51 10.6 30 -1.1 44 44 SW 12 19 29.87 1011 10 16 0.00 0.00
4:53 am 04:53 Clear 51 10.6 32 0 48 48 SW 10 17 29.88 1012 10 16 0.00 0.00
5:53 am 05:53 Clear 50 10 33 0.6 52 52 SW 9 15 29.90 1012 10 16 0.00 0.00
6:53 am 06:53 Clear 50 10 34 1.1 54 54 SW 9 15 29.90 1012 10 16 0.00 0.00
7:53 am 07:53 Sunny 50 10 36 2.2 59 59 SW 8 13 29.92 1013 10 16 0.00 0.00
8:53 am 08:53 Sunny 51 10.6 39 3.9 64 64 SW 8 13 29.93 1014 10 16 0.00 0.00
9:53 am 09:53 Sunny 53 11.7 41 5 64 64 SW 12 19 29.94 1014 10 16 0.00 0.00
10:53 am 10:53 Sunny 55 12.8 43 6.1 64 64 SW 14 22 29.93 1014 10 16 0.00 0.00
11:53 am 11:53 Sunny 59 15 45 7.2 60 60 SW 12 19 29.95 1014 10 16 0.00 0.00
12:53 pm 12:53 Sunny 62 16.7 48 8.9 60 60 WSW 12 19 29.92 1013 10 16 0.00 0.00
1:53 pm 13:53 Mostly Sunny 62 16.7 49 9.4 62 62 WSW 10 17 29.91 1013 10 16 0.00 0.00
2:53 pm 14:53 Cloudy 63 17.2 50 10 63 63 WSW 8 13 29.90 1013 10 16 0.00 0.00
3:53 pm 15:53 Cloudy 63 17.2 51 10.6 65 65 SSW 10 17 29.89 1012 10 16 0.00 0.00
4:53 pm 16:53 Mostly Cloudy 62 16.7 51 10.6 67 67 S 12 19 29.88 1012 10 16 0.00 0.00
5:53 pm 17:53 Cloudy 61 16.1 52 11.1 72 72 SSW 9 15 29.89 1012 10 16 0.00 0.00
6:53 pm 18:53 Cloudy 58 14.4 52 11.1 81 81 S 6 9 29.90 1013 10 16 0.00 0.00
7:53 pm 19:53 Mostly Cloudy 58 14.4 51 10.6 78 78 S 9 15 29.91 1013 10 16 0.00 0.00
8:53 pm 20:53 Cloudy 58 14.4 52 11.1 81 81 S 5 7 29.91 1013 10 16 0.00 0.00
9:02 pm 21:02 Cloudy 57 13.9 52 11.1 83 83 S 7 11 29.91 1013 10 16 0.00 0.00
9:24 pm 21:24 Cloudy with Light Rain 57 13.9 53 11.7 87 87 SSW 6 9 29.91 1013 3 5 0.01 0.25
9:53 pm 21:53 Cloudy with Light Rain 56 13.3 55 12.8 97 97 S 7 11 29.88 1012 6 10 0.02 0.51
10:53 pm 22:53 Cloudy with Mist and Fog 56 13.3 55 12.8 97 97 S 7 11 29.85 1011 6 10 0.00 0.03
11:51 pm 23:51 Cloudy 57 14 55 13 94 94 S 8 13 29.83 1010 7 11 0.00 0.00
11:53 pm 23:53 Cloudy 57 13.9 55 12.8 93 93 S 8 13 29.82 1010 7 11 0.00 0.00

Powered by AerisWeather